SCP
1 1 2 2 2 2 2 2 1 1 0 1 0 0 0 0 0 0 0 0 0 0 0 -0 0 -0 -0 -0 0 0 0 0 0 0 0 0 0 0 0 0 0 0 0
1 1 2 3 2 2 1 1 1 1 1 2 0 0 1 0 0 0 0 0 0 0 0 0 0 0 -0 -0 0 0 0 0 0 0 0 0 0 0 0 0 0 0 -0
2 2 2 2 2 2 1 1 1 1 0 1 1 0 1 1 1 0 0 0 0 0 0 0 0 0 0 0 0 0 0 0 0 0 0 0 0 0 0 0 0 -0 0
2 3 3 3 2 3 2 1 1 1 0 0 0 1 1 1 1 1 1 0 0 0 0 0 0 0 0 0 0 0 0 0 0 0 0 0 0 0 -0 0 0 0 -0
0 1 2 2 2 2 2 1 1 1 2 1 1 1 0 0 0 0 0 0 0 0 0 0 0 0 0 0 0 0 0 0 0 0 -0 0 0 0 0 0 0 0 0
0 0 1 1 1 1 1 1 1 1 1 0 0 0 0 1 0 0 0 -0 0 0 0 -0 0 0 0 0 0 0 0 0 0 0 0 0 0 0 0 0 0 0 0
1 0 0 0 1 1 1 1 1 1 1 0 0 0 0 0 0 0 0 0 0 0 0 0 0 -0 0 0 0 0 0 0 0 0 0 0 0 0 0 0 0 0 0
1 0 0 0 1 0 1 0 0 1 1 1 1 1 1 0 0 0 0 0 -0 -0 -0 -0 -0 -0 0 0 0 0 0 0 0 0 0 0 0 0 0 0 0 0 0
1 1 1 1 0 1 1 1 0 0 0 0 1 1 1 1 0 0 0 0 -0 -0 -0 -0 -0 -0 0 0 0 0 0 0 0 0 0 0 0 0 0 0 0 0 0
1 1 1 1 1 1 1 1 1 1 0 0 0 0 0 1 1 0 0 0 0 0 -0 -0 -0 0 -0 0 0 0 0 0 1 0 0 0 0 0 0 0 0 0 0
1 1 1 1 1 1 1 1 1 1 0 0 0 0 0 0 1 0 0 1 0 0 0 0 0 0 0 0 0 0 0 0 0 0 0 0 0 0 0 0 0 0 0
0 1 1 1 2 1 1 1 1 1 1 0 0 0 0 1 1 0 0 0 0 0 0 0 0 0 0 0 -0 0 0 0 0 0 0 0 0 0 0 1 0 0 0
0 0 0 0 1 1 1 0 0 0 1 0 0 0 0 0 0 0 0 0 0 0 0 0 0 0 0 0 0 0 0 0 0 0 0 0 0 0 0 1 1 0 0
0 0 0 0 0 0 1 0 0 0 0 0 0 0 0 0 0 0 0 0 0 0 0 0 0 0 0 0 0 -0 0 0 0 0 0 0 0 0 0 0 0 0 1
0 0 0 0 0 0 0 0 0 0 0 0 0 0 0 0 0 0 0 0 0 0 0 1 0 0 0 0 0 0 0 0 0 0 0 0 0 0 0 0 0 0 0
0 0 0 0 0 0 0 0 0 0 0 0 0 0 0 0 0 -0 -0 0 0 -0 0 0 1 1 0 1 0 0 0 0 0 0 0 0 0 0 0 0 0 0 0
0 0 0 0 0 0 0 0 0 0 0 0 0 0 0 0 0 0 0 0 0 0 0 0 1 1 1 1 1 1 1 0 0 0 0 0 0 0 0 0 0 0 0
0 0 0 0 0 0 0 0 0 0 0 0 0 0 0 0 0 0 0 0 0 0 0 0 0 1 1 0 0 0 1 1 0 0 0 0 0 0 0 0 0 0 0
0 0 0 0 0 0 0 0 0 0 0 0 0 0 0 0 0 -0 -0 0 0 0 0 0 0 0 1 0 0 0 0 0 0 0 0 0 0 0 0 0 0 0 0
0 0 0 0 0 0 0 0 0 0 0 0 0 0 0 0 0 0 0 0 0 0 0 0 0 0 0 0 0 0 0 0 0 1 0 0 0 0 0 0 0 0 0
0 0 0 0 0 0 0 0 0 0 0 0 0 0 0 0 0 0 0 0 0 0 0 0 0 0 0 0 0 0 0 0 0 1 1 0 0 0 0 0 0 0 0
0 -0 0 0 0 0 0 0 0 0 0 0 0 0 0 0 0 0 0 0 0 0 0 0 0 0 1 1 1 0 0 0 0 1 1 1 1 0 0 0 0 0 0
0 0 0 0 0 0 0 0 0 0 0 0 0 0 0 0 0 0 0 0 0 0 0 0 0 0 0 0 1 1 0 0 0 0 1 1 1 0 0 0 0 0 0
0 0 0 -0 -0 -0 0 0 0 0 0 0 -0 0 0 0 -0 0 0 0 0 0 0 0 1 0 0 0 0 0 0 0 0 0 0 1 1 0 0 0 0 0 0
-0 -0 -0 0 0 -0 -0 -0 0 0 0 0 -0 -0 -0 -0 -0 -0 0 0 0 0 0 0 0 -0 0 0 0 0 0 0 0 0 0 0 0 0 0 0 0 0 0
0 0 0 0 0 0 0 -0 0 0 0 0 0 0 0 -0 0 0 0 0 0 0 0 0 -0 0 0 0 0 0 0 0 0 0 0 0 0 0 0 0 0 0 0
Wind_Speed_500mb
18 21 35 34 29 30 38 36 41 40 39 38 31 29 31 39 44 48 50 48 53 58 60 66 65 61 57 60 48 47 46 39 36 35 33 29 33 44 37 39 36 22 20
12 21 21 42 38 35 33 31 35 38 33 38 45 39 39 39 39 36 41 46 49 57 64 61 70 67 59 60 57 49 53 46 38 31 29 35 33 40 36 27 25 22 24
20 21 22 27 33 40 30 34 38 42 40 35 39 40 36 29 33 30 33 34 37 47 57 63 64 67 61 62 67 59 55 49 42 34 25 16 13 27 36 28 24 19 28
12 12 10 21 18 22 28 26 25 27 26 29 30 30 28 27 31 34 35 32 33 39 46 55 61 66 65 61 61 66 58 48 45 44 34 33 26 18 32 30 28 29 30
10 9 11 15 18 16 20 28 26 25 25 26 24 24 29 34 31 36 38 37 33 33 30 44 48 53 56 54 58 60 57 55 54 49 51 38 29 30 40 33 35 29 36
19 20 19 19 21 21 19 19 22 16 17 19 19 21 14 22 29 35 32 55 56 38 42 44 50 56 53 54 58 54 59 61 53 52 40 44 45 25 22 29 32 34 37
30 33 33 33 32 30 29 29 27 26 27 27 22 20 18 24 27 34 36 34 32 29 42 44 52 58 46 44 47 49 44 55 60 54 57 51 44 46 38 32 35 36 34
37 42 47 50 49 48 46 44 41 37 35 37 40 38 34 28 22 21 27 24 39 40 50 51 50 54 41 47 53 46 43 45 49 52 56 57 51 45 42 34 34 37 42
43 41 40 42 47 49 53 59 63 65 62 57 52 49 46 40 29 23 24 22 35 40 31 33 40 52 50 46 55 51 48 49 50 52 55 51 47 45 44 42 45 42 41
60 60 59 61 64 65 63 64 68 69 65 66 70 62 57 49 37 28 32 34 39 26 17 16 38 50 52 51 55 55 60 57 56 52 53 59 56 52 49 46 43 48 46
44 46 52 56 58 60 63 65 66 69 71 68 63 62 58 56 54 47 49 54 50 46 52 38 34 33 47 52 59 63 67 60 53 52 54 48 45 47 50 51 48 51 50
55 58 58 59 62 68 73 71 67 65 70 65 61 59 56 50 48 50 54 62 59 54 56 66 68 40 30 57 56 60 47 47 46 43 58 59 58 58 60 54 49 51 51
73 75 75 79 75 72 72 70 72 70 64 64 68 70 65 57 35 46 53 58 65 69 61 67 65 61 51 37 58 62 64 66 70 68 64 62 66 63 61 65 59 50 46
78 82 78 72 72 73 71 70 71 68 61 55 55 57 53 49 43 52 51 61 59 71 66 60 59 68 72 65 55 64 64 65 72 79 74 67 60 62 60 56 57 56 55
73 78 83 75 64 68 74 68 64 63 59 57 56 53 52 53 53 30 31 29 47 64 79 68 63 61 74 76 73 74 57 64 68 66 71 76 71 63 61 59 66 65 65
70 69 65 69 66 62 62 65 58 60 58 57 56 56 62 70 67 69 65 57 51 39 59 59 58 60 63 66 72 74 66 58 58 62 66 67 67 62 64 59 61 67 70
58 58 58 63 67 70 66 68 65 60 61 57 56 51 50 51 56 63 70 61 54 56 51 48 56 56 51 46 54 66 72 67 64 56 57 59 65 71 70 65 62 65 67
54 55 55 62 64 60 61 56 56 59 58 62 53 48 52 53 53 52 65 66 65 59 63 67 58 52 53 48 44 45 58 62 66 61 63 64 62 66 69 68 73 75 75
52 52 52 52 43 38 38 41 44 53 53 53 50 53 51 51 52 62 58 59 66 68 65 68 74 70 60 54 52 54 48 51 50 52 61 69 64 71 74 73 72 74 82
60 46 43 45 37 36 38 44 47 51 49 48 52 52 52 53 55 55 47 47 60 65 63 61 65 73 73 62 56 62 60 62 57 59 55 52 59 67 83 85 94 85 79
57 52 39 35 37 37 37 37 35 33 37 43 44 40 42 42 48 43 49 55 48 46 61 64 61 65 67 66 62 69 76 79 69 68 66 62 56 58 58 69 72 72 89
48 33 22 26 24 23 24 30 29 36 41 47 47 43 38 48 50 57 60 55 56 50 39 45 53 55 63 61 59 61 67 73 73 74 67 58 56 57 61 62 66 65 70
31 7 15 23 31 29 31 33 34 40 42 44 34 35 41 45 52 52 50 50 59 59 53 60 61 55 53 62 65 60 65 78 78 73 75 70 64 59 49 50 61 64 76
45 34 30 24 28 35 39 38 34 33 35 34 38 43 49 50 50 48 50 54 53 56 58 62 63 70 65 41 52 67 53 54 64 62 63 57 55 52 52 47 41 57 62
47 33 32 36 41 43 37 31 31 25 26 29 38 43 42 39 34 43 45 41 39 59 53 54 52 52 61 57 49 46 67 76 66 53 54 65 70 62 58 56 53 54 52
92 75 58 46 38 37 36 33 32 32 30 34 35 32 30 35 33 29 25 24 31 37 52 69 62 45 50 44 49 56 51 46 44 54 69 70 69 69 67 59 53 52 51
Wind_Direction_500mb
281 278 260 255 270 279 262 259 258 262 255 258 277 266 258 267 264 261 262 267 261 254 249 238 237 243 242 226 226 231 238 232 229 250 241 251 237 234 225 249 230 245 263
213 254 266 248 260 274 263 260 262 266 258 251 273 255 259 265 260 272 277 272 271 257 253 249 244 244 242 231 225 230 229 234 233 246 254 254 238 229 246 242 221 238 254
309 281 264 251 257 265 256 263 277 276 272 258 262 250 268 250 255 271 284 293 280 275 262 250 244 238 237 234 225 232 228 232 232 238 236 218 228 217 214 231 238 242 251
296 290 289 260 264 230 253 267 279 279 275 279 285 265 265 269 265 265 266 277 277 285 273 245 242 235 236 233 225 228 230 231 231 228 241 242 231 220 224 228 235 242 252
290 9 343 304 284 293 284 285 288 287 287 281 281 271 269 261 260 273 290 289 295 282 273 259 243 243 233 233 226 229 230 230 233 225 229 235 238 227 228 234 226 244 253
285 264 268 278 290 293 294 297 298 307 318 312 273 298 285 283 267 285 293 294 274 292 282 269 258 249 233 236 231 235 228 228 236 233 227 230 224 225 218 219 228 241 246
291 297 295 284 276 280 283 286 291 300 306 308 307 313 317 312 299 276 297 311 313 286 295 278 265 247 240 242 232 228 236 229 225 227 228 230 231 237 247 259 255 257 255
289 294 297 297 295 294 289 286 285 286 289 294 298 301 304 307 308 314 292 308 296 285 305 278 281 278 247 249 251 239 234 229 225 227 233 235 239 240 249 258 264 263 259
291 284 286 287 287 286 286 289 291 291 288 284 283 287 290 297 291 286 269 248 332 302 286 308 288 278 259 258 250 251 239 233 233 236 239 240 243 240 247 258 254 261 261
292 289 287 286 284 281 280 282 287 287 284 284 284 280 278 282 280 259 259 263 261 254 291 264 276 305 286 246 242 240 243 237 238 237 235 241 246 249 245 246 252 250 256
294 293 288 280 278 277 278 283 287 284 284 282 280 280 277 268 259 253 259 264 267 254 242 239 240 266 254 249 238 237 241 241 240 250 246 241 241 246 249 242 248 252 258
286 286 286 286 279 276 281 282 284 281 280 276 277 279 280 281 263 260 259 259 262 253 251 255 251 261 244 230 238 235 237 241 235 246 246 245 245 250 252 254 253 252 256
295 293 292 291 284 276 273 274 281 286 277 274 276 277 278 268 257 255 265 264 256 253 252 254 253 257 253 258 242 246 244 247 245 246 250 247 246 250 254 258 257 255 257
291 290 290 283 280 275 272 274 279 278 276 273 274 274 273 269 265 268 263 263 263 255 249 256 260 260 255 253 252 247 245 247 248 250 251 255 257 261 261 258 251 254 255
294 288 291 287 283 277 269 273 276 272 270 272 272 269 271 267 263 262 252 278 257 255 238 245 258 257 255 253 251 250 248 243 245 247 246 251 259 263 266 257 250 256 255
298 292 288 287 284 277 271 271 273 268 267 272 269 271 264 261 264 266 272 277 276 267 245 245 253 256 255 255 252 250 249 247 249 246 250 252 254 257 263 264 256 254 256
300 295 292 286 283 275 269 265 270 270 267 263 267 269 262 266 269 264 264 270 273 269 264 253 246 252 262 267 268 260 251 250 255 253 252 254 255 256 259 256 252 252 253
309 305 291 292 292 277 269 262 266 274 274 276 267 259 267 266 265 264 258 262 262 263 261 259 261 257 258 263 277 263 250 251 252 251 252 251 250 249 250 247 248 246 245
309 308 299 302 286 273 272 269 270 275 278 274 280 267 265 268 267 256 265 270 260 260 263 261 258 259 260 261 263 257 249 245 244 251 256 252 252 256 254 248 250 253 251
298 294 302 292 283 270 272 273 275 274 274 277 272 268 275 270 266 260 261 262 258 256 262 266 261 257 258 258 257 256 247 246 252 254 251 253 256 255 255 256 258 248 252
314 284 293 300 290 280 279 279 276 277 274 272 273 273 270 275 269 267 263 267 273 266 262 263 262 259 258 254 256 250 246 247 248 246 251 253 260 259 264 257 239 257 246
315 296 293 299 311 291 281 272 282 283 276 277 275 271 273 272 265 261 265 263 263 265 264 263 272 264 258 256 252 249 238 239 240 244 251 250 251 266 271 257 253 248 232
355 18 9 -0 342 327 316 304 295 297 274 293 270 277 283 277 274 270 268 265 259 255 265 263 262 272 269 256 253 252 247 243 241 249 253 251 254 255 266 257 249 247 244
42 36 11 1 339 337 329 318 309 299 307 297 288 290 280 279 280 278 273 267 271 258 266 267 263 266 262 255 248 241 244 242 246 247 244 246 247 250 254 264 263 251 253
31 20 358 354 353 352 349 342 333 314 300 300 301 284 284 287 284 280 280 274 269 261 263 252 255 286 249 248 256 261 244 243 243 245 239 240 248 256 260 260 263 262 264
43 41 33 25 20 6 2 355 350 343 328 317 318 308 303 288 283 280 279 266 267 263 257 253 267 261 244 260 258 252 252 248 246 247 248 249 251 252 252 257 263 264 271
Wind_Speed_850mb
18 21 35 34 29 30 38 36 41 40 39 38 31 29 31 39 44 48 50 48 53 58 60 66 65 61 57 60 48 47 46 39 36 35 33 29 33 44 37 39 36 22 20
12 21 21 42 38 35 33 31 35 38 33 38 45 39 39 39 39 36 41 46 49 57 64 61 70 67 59 60 57 49 53 46 38 31 29 35 33 40 36 27 25 22 24
20 21 22 27 33 40 30 34 38 42 40 35 39 40 36 29 33 30 33 34 37 47 57 63 64 67 61 62 67 59 55 49 42 34 25 16 13 27 36 28 24 19 28
12 12 10 21 18 22 28 26 25 27 26 29 30 30 28 27 31 34 35 32 33 39 46 55 61 66 65 61 61 66 58 48 45 44 34 33 26 18 32 30 28 29 30
10 9 11 15 18 16 20 28 26 25 25 26 24 24 29 34 31 36 38 37 33 33 30 44 48 53 56 54 58 60 57 55 54 49 51 38 29 30 40 33 35 29 36
19 20 19 19 21 21 19 19 22 16 17 19 19 21 14 22 29 35 32 55 56 38 42 44 50 56 53 54 58 54 59 61 53 52 40 44 45 25 22 29 32 34 37
30 33 33 33 32 30 29 29 27 26 27 27 22 20 18 24 27 34 36 34 32 29 42 44 52 58 46 44 47 49 44 55 60 54 57 51 44 46 38 32 35 36 34
37 42 47 50 49 48 46 44 41 37 35 37 40 38 34 28 22 21 27 24 39 40 50 51 50 54 41 47 53 46 43 45 49 52 56 57 51 45 42 34 34 37 42
43 41 40 42 47 49 53 59 63 65 62 57 52 49 46 40 29 23 24 22 35 40 31 33 40 52 50 46 55 51 48 49 50 52 55 51 47 45 44 42 45 42 41
60 60 59 61 64 65 63 64 68 69 65 66 70 62 57 49 37 28 32 34 39 26 17 16 38 50 52 51 55 55 60 57 56 52 53 59 56 52 49 46 43 48 46
44 46 52 56 58 60 63 65 66 69 71 68 63 62 58 56 54 47 49 54 50 46 52 38 34 33 47 52 59 63 67 60 53 52 54 48 45 47 50 51 48 51 50
55 58 58 59 62 68 73 71 67 65 70 65 61 59 56 50 48 50 54 62 59 54 56 66 68 40 30 57 56 60 47 47 46 43 58 59 58 58 60 54 49 51 51
73 75 75 79 75 72 72 70 72 70 64 64 68 70 65 57 35 46 53 58 65 69 61 67 65 61 51 37 58 62 64 66 70 68 64 62 66 63 61 65 59 50 46
78 82 78 72 72 73 71 70 71 68 61 55 55 57 53 49 43 52 51 61 59 71 66 60 59 68 72 65 55 64 64 65 72 79 74 67 60 62 60 56 57 56 55
73 78 83 75 64 68 74 68 64 63 59 57 56 53 52 53 53 30 31 29 47 64 79 68 63 61 74 76 73 74 57 64 68 66 71 76 71 63 61 59 66 65 65
70 69 65 69 66 62 62 65 58 60 58 57 56 56 62 70 67 69 65 57 51 39 59 59 58 60 63 66 72 74 66 58 58 62 66 67 67 62 64 59 61 67 70
58 58 58 63 67 70 66 68 65 60 61 57 56 51 50 51 56 63 70 61 54 56 51 48 56 56 51 46 54 66 72 67 64 56 57 59 65 71 70 65 62 65 67
54 55 55 62 64 60 61 56 56 59 58 62 53 48 52 53 53 52 65 66 65 59 63 67 58 52 53 48 44 45 58 62 66 61 63 64 62 66 69 68 73 75 75
52 52 52 52 43 38 38 41 44 53 53 53 50 53 51 51 52 62 58 59 66 68 65 68 74 70 60 54 52 54 48 51 50 52 61 69 64 71 74 73 72 74 82
60 46 43 45 37 36 38 44 47 51 49 48 52 52 52 53 55 55 47 47 60 65 63 61 65 73 73 62 56 62 60 62 57 59 55 52 59 67 83 85 94 85 79
57 52 39 35 37 37 37 37 35 33 37 43 44 40 42 42 48 43 49 55 48 46 61 64 61 65 67 66 62 69 76 79 69 68 66 62 56 58 58 69 72 72 89
48 33 22 26 24 23 24 30 29 36 41 47 47 43 38 48 50 57 60 55 56 50 39 45 53 55 63 61 59 61 67 73 73 74 67 58 56 57 61 62 66 65 70
31 7 15 23 31 29 31 33 34 40 42 44 34 35 41 45 52 52 50 50 59 59 53 60 61 55 53 62 65 60 65 78 78 73 75 70 64 59 49 50 61 64 76
45 34 30 24 28 35 39 38 34 33 35 34 38 43 49 50 50 48 50 54 53 56 58 62 63 70 65 41 52 67 53 54 64 62 63 57 55 52 52 47 41 57 62
47 33 32 36 41 43 37 31 31 25 26 29 38 43 42 39 34 43 45 41 39 59 53 54 52 52 61 57 49 46 67 76 66 53 54 65 70 62 58 56 53 54 52
92 75 58 46 38 37 36 33 32 32 30 34 35 32 30 35 33 29 25 24 31 37 52 69 62 45 50 44 49 56 51 46 44 54 69 70 69 69 67 59 53 52 51
Wind_Direction_850mb
281 278 260 255 270 279 262 259 258 262 255 258 277 266 258 267 264 261 262 267 261 254 249 238 237 243 242 226 226 231 238 232 229 250 241 251 237 234 225 249 230 245 263
213 254 266 248 260 274 263 260 262 266 258 251 273 255 259 265 260 272 277 272 271 257 253 249 244 244 242 231 225 230 229 234 233 246 254 254 238 229 246 242 221 238 254
309 281 264 251 257 265 256 263 277 276 272 258 262 250 268 250 255 271 284 293 280 275 262 250 244 238 237 234 225 232 228 232 232 238 236 218 228 217 214 231 238 242 251
296 290 289 260 264 230 253 267 279 279 275 279 285 265 265 269 265 265 266 277 277 285 273 245 242 235 236 233 225 228 230 231 231 228 241 242 231 220 224 228 235 242 252
290 9 343 304 284 293 284 285 288 287 287 281 281 271 269 261 260 273 290 289 295 282 273 259 243 243 233 233 226 229 230 230 233 225 229 235 238 227 228 234 226 244 253
285 264 268 278 290 293 294 297 298 307 318 312 273 298 285 283 267 285 293 294 274 292 282 269 258 249 233 236 231 235 228 228 236 233 227 230 224 225 218 219 228 241 246
291 297 295 284 276 280 283 286 291 300 306 308 307 313 317 312 299 276 297 311 313 286 295 278 265 247 240 242 232 228 236 229 225 227 228 230 231 237 247 259 255 257 255
289 294 297 297 295 294 289 286 285 286 289 294 298 301 304 307 308 314 292 308 296 285 305 278 281 278 247 249 251 239 234 229 225 227 233 235 239 240 249 258 264 263 259
291 284 286 287 287 286 286 289 291 291 288 284 283 287 290 297 291 286 269 248 332 302 286 308 288 278 259 258 250 251 239 233 233 236 239 240 243 240 247 258 254 261 261
292 289 287 286 284 281 280 282 287 287 284 284 284 280 278 282 280 259 259 263 261 254 291 264 276 305 286 246 242 240 243 237 238 237 235 241 246 249 245 246 252 250 256
294 293 288 280 278 277 278 283 287 284 284 282 280 280 277 268 259 253 259 264 267 254 242 239 240 266 254 249 238 237 241 241 240 250 246 241 241 246 249 242 248 252 258
286 286 286 286 279 276 281 282 284 281 280 276 277 279 280 281 263 260 259 259 262 253 251 255 251 261 244 230 238 235 237 241 235 246 246 245 245 250 252 254 253 252 256
295 293 292 291 284 276 273 274 281 286 277 274 276 277 278 268 257 255 265 264 256 253 252 254 253 257 253 258 242 246 244 247 245 246 250 247 246 250 254 258 257 255 257
291 290 290 283 280 275 272 274 279 278 276 273 274 274 273 269 265 268 263 263 263 255 249 256 260 260 255 253 252 247 245 247 248 250 251 255 257 261 261 258 251 254 255
294 288 291 287 283 277 269 273 276 272 270 272 272 269 271 267 263 262 252 278 257 255 238 245 258 257 255 253 251 250 248 243 245 247 246 251 259 263 266 257 250 256 255
298 292 288 287 284 277 271 271 273 268 267 272 269 271 264 261 264 266 272 277 276 267 245 245 253 256 255 255 252 250 249 247 249 246 250 252 254 257 263 264 256 254 256
300 295 292 286 283 275 269 265 270 270 267 263 267 269 262 266 269 264 264 270 273 269 264 253 246 252 262 267 268 260 251 250 255 253 252 254 255 256 259 256 252 252 253
309 305 291 292 292 277 269 262 266 274 274 276 267 259 267 266 265 264 258 262 262 263 261 259 261 257 258 263 277 263 250 251 252 251 252 251 250 249 250 247 248 246 245
309 308 299 302 286 273 272 269 270 275 278 274 280 267 265 268 267 256 265 270 260 260 263 261 258 259 260 261 263 257 249 245 244 251 256 252 252 256 254 248 250 253 251
298 294 302 292 283 270 272 273 275 274 274 277 272 268 275 270 266 260 261 262 258 256 262 266 261 257 258 258 257 256 247 246 252 254 251 253 256 255 255 256 258 248 252
314 284 293 300 290 280 279 279 276 277 274 272 273 273 270 275 269 267 263 267 273 266 262 263 262 259 258 254 256 250 246 247 248 246 251 253 260 259 264 257 239 257 246
315 296 293 299 311 291 281 272 282 283 276 277 275 271 273 272 265 261 265 263 263 265 264 263 272 264 258 256 252 249 238 239 240 244 251 250 251 266 271 257 253 248 232
355 18 9 -0 342 327 316 304 295 297 274 293 270 277 283 277 274 270 268 265 259 255 265 263 262 272 269 256 253 252 247 243 241 249 253 251 254 255 266 257 249 247 244
42 36 11 1 339 337 329 318 309 299 307 297 288 290 280 279 280 278 273 267 271 258 266 267 263 266 262 255 248 241 244 242 246 247 244 246 247 250 254 264 263 251 253
31 20 358 354 353 352 349 342 333 314 300 300 301 284 284 287 284 280 280 274 269 261 263 252 255 286 249 248 256 261 244 243 243 245 239 240 248 256 260 260 263 262 264
43 41 33 25 20 6 2 355 350 343 328 317 318 308 303 288 283 280 279 266 267 263 257 253 267 261 244 260 258 252 252 248 246 247 248 249 251 252 252 257 263 264 271